GEFSSGP_con_cape1000_048.txt.gz
Probability
100 100 97 16 0 0 0 0 0 0 0 0 0 0 0 0 0 0 0 0 3 26 87 100 100 100 100 100 100 100 97 100 100 100 100 100 100 100 100 100 100 100 100 100 100 100 100 100 100
97 97 52 0 0 0 0 0 0 0 0 0 0 0 0 3 6 6 0 6 10 45 100 100 100 100 100 100 100 97 97 97 97 100 100 100 100 100 97 97 97 97 97 97 97 97 97 100 100
94 90 6 0 0 0 0 0 0 0 0 0 0 0 0 3 16 10 6 10 26 61 97 100 100 100 100 100 100 97 97 94 94 94 97 97 97 97 97 97 97 97 97 97 97 97 100 100 100
84 6 0 0 0 0 0 0 0 0 0 0 0 0 0 0 16 23 13 13 35 71 94 100 100 100 100 100 100 97 97 94 94 90 90 94 90 94 94 94 94 90 90 94 97 97 100 100 100
10 0 0 0 0 0 0 0 0 0 0 0 0 0 0 10 19 23 13 16 35 74 94 100 100 100 100 100 100 97 97 94 94 90 90 84 87 90 90 94 94 94 90 87 90 97 90 90 97
0 0 0 0 0 0 0 0 0 0 0 0 0 0 0 32 35 23 16 23 39 74 100 100 100 100 100 100 100 97 97 94 81 87 90 87 90 90 87 87 81 74 74 65 71 77 77 71 87
0 0 0 0 0 0 0 0 0 0 0 0 0 0 3 39 29 19 6 13 42 77 97 100 100 100 100 100 100 100 97 97 90 84 84 87 90 81 74 68 52 48 42 48 48 48 65 71 71
0 0 0 0 0 0 0 0 0 0 0 0 0 0 3 13 10 13 10 10 42 55 84 97 100 100 100 100 100 100 100 97 97 90 87 94 84 77 74 61 39 29 23 19 19 16 16 26 58
0 0 0 0 0 0 0 0 0 0 0 0 0 0 0 6 19 23 23 23 29 45 55 87 90 97 100 100 100 100 100 100 97 97 90 90 48 29 42 48 35 16 6 0 6 6 16 16 19
0 0 0 0 0 0 0 0 0 0 0 0 0 0 0 10 16 23 29 29 39 42 39 55 71 71 90 100 100 100 100 97 84 68 68 55 3 3 6 16 26 19 10 3 0 3 3 0 0
0 0 0 0 0 0 0 0 0 0 0 0 0 0 10 16 16 19 32 19 19 26 39 58 58 68 71 77 65 87 84 71 61 45 26 10 3 3 0 0 3 6 13 3 0 0 0 0 0
0 0 0 0 0 0 0 0 0 0 0 0 0 0 6 10 13 16 19 19 13 16 29 32 58 55 58 52 42 61 65 58 42 26 13 10 3 0 0 0 0 0 0 0 0 0 0 0 0
0 0 0 0 0 0 0 0 0 0 0 0 0 0 3 3 3 3 0 6 19 23 19 16 42 35 35 29 23 58 61 61 45 32 13 10 3 3 0 0 0 0 0 0 0 0 0 0 0
0 0 0 0 0 0 0 0 0 0 0 0 0 0 0 0 0 0 0 0 0 10 13 19 16 13 10 16 10 23 45 55 32 26 19 16 10 3 0 0 0 0 0 0 0 0 0 0 0
0 0 0 0 0 0 0 0 0 0 0 0 0 0 0 0 0 0 0 0 0 0 0 13 16 13 0 0 10 13 26 26 29 26 6 6 3 0 0 0 0 0 0 0 0 0 0 0 0
0 0 0 0 0 0 0 0 0 0 0 0 0 0 0 0 0 0 0 0 0 0 0 0 10 16 6 6 3 19 19 26 23 16 6 3 0 0 0 0 0 0 0 0 0 0 0 0 0
0 0 0 0 0 0 0 0 0 0 0 0 0 0 0 0 0 0 0 0 0 0 0 0 0 3 3 0 13 13 13 6 6 6 3 3 0 0 0 0 0 0 0 0 0 0 0 0 0
0 0 0 0 0 0 0 0 0 0 0 0 0 0 0 0 0 0 0 0 0 0 0 0 0 0 0 3 3 10 13 13 10 6 3 3 3 0 0 0 0 0 0 0 0 0 0 0 0
0 0 0 0 0 0 0 0 0 0 0 0 0 0 0 0 0 0 0 0 0 0 0 0 0 0 0 0 3 3 0 3 13 6 3 3 0 0 0 0 0 0 0 0 0 0 0 0 0
0 0 0 0 0 0 0 0 0 0 0 0 0 0 0 0 0 0 0 0 0 0 0 0 0 0 0 0 0 0 3 3 0 10 3 3 3 0 0 0 0 0 0 0 0 0 0 0 0
0 0 0 0 0 0 0 0 0 0 0 0 0 0 0 0 0 0 0 0 0 0 0 0 0 0 0 0 0 0 0 3 0 0 3 3 0 3 3 0 0 0 0 0 0 0 0 0 0
0 0 0 0 0 0 0 0 0 0 0 0 0 0 0 0 0 0 0 0 0 0 0 0 0 0 0 0 0 0 0 0 3 3 3 3 6 3 3 3 0 0 0 0 0 0 0 0 0
0 0 0 0 0 0 0 0 0 0 0 0 0 0 0 0 0 0 0 0 0 0 0 0 0 0 0 0 0 0 0 0 0 0 3 3 6 3 3 3 0 0 0 0 0 0 0 0 0
0 0 0 0 0 0 0 0 0 0 0 0 0 0 0 0 0 0 0 0 0 0 0 0 0 0 0 0 0 0 0 0 0 3 3 3 0 0 0 0 0 0 0 0 0 0 0 0 0
0 0 0 0 0 0 0 0 0 0 0 0 0 0 0 0 0 0 0 0 0 0 0 0 0 0 0 0 0 0 0 0 0 3 3 0 0 0 0 0 0 0 0 0 0 0 0 0 0
0 0 0 0 0 0 0 0 0 0 0 0 0 0 0 0 0 0 0 0 0 0 0 0 0 0 0 0 0 0 0 0 0 0 3 0 0 0 0 0 0 0 0 0 0 0 0 0 0
0 0 0 0 0 0 0 0 0 0 0 0 0 0 0 0 0 0 0 0 0 0 0 0 0 0 0 0 0 0 0 0 0 0 0 0 0 0 0 0 0 0 0 0 0 0 0 0 0
0 0 0 0 0 0 0 0 0 0 0 0 0 0 0 0 0 0 0 0 0 0 0 0 0 0 0 0 0 0 0 0 0 0 0 0 0 0 0 0 0 0 0 0 0 0 0 0 0
0 0 0 0 0 0 0 0 0 0 0 0 0 0 0 0 0 0 0 0 0 0 0 0 0 0 0 0 0 0 0 0 0 0 0 0 0 0 0 0 0 0 0 0 0 0 0 0 0
0 0 0 0 0 0 0 0 0 0 0 0 0 0 0 0 0 0 0 0 0 0 0 0 0 0 0 0 0 0 0 0 0 0 0 0 0 0 0 0 0 0 0 0 0 0 0 0 0

GEFSSGP_con_cape1000_054.txt.gz
Probability
100 100 100 97 26 0 0 0 0 0 0 0 0 0 0 0 0 16 26 0 0 26 97 100 100 100 100 100 100 100 100 100 100 97 97 97 97 97 97 100 100 100 100 100 100 100 100 100 100
100 100 94 52 0 0 0 0 0 0 0 0 0 0 0 10 23 19 10 0 0 32 94 94 100 100 100 100 100 100 100 100 100 97 97 97 97 97 97 97 94 94 97 97 97 97 100 100 100
100 97 81 6 0 0 0 0 0 0 0 0 0 0 0 3 3 6 23 3 0 42 84 100 100 100 100 100 100 97 97 97 97 97 97 97 94 94 94 97 94 90 94 97 97 97 97 100 100
94 94 29 3 0 0 0 0 0 0 0 0 0 0 0 6 13 10 13 3 16 45 77 100 100 100 100 100 97 97 97 97 94 94 94 94 97 97 87 90 90 90 90 94 94 97 97 97 100
90 48 3 0 0 0 0 0 0 0 0 0 0 0 3 42 35 13 16 6 13 26 68 97 100 100 100 100 97 97 97 97 90 90 87 87 87 84 84 87 90 90 90 90 94 87 90 94 97
74 23 0 0 0 0 0 0 0 0 0 0 0 0 13 58 42 23 26 16 6 16 48 84 100 100 100 100 97 97 97 97 94 84 84 87 81 74 84 81 84 77 74 77 77 71 68 81 81
68 13 0 0 0 0 0 0 0 3 3 0 0 0 13 77 71 48 42 39 10 13 29 71 94 100 100 100 100 97 97 90 87 87 87 87 84 77 77 84 68 48 52 58 55 52 52 58 68
58 10 0 0 0 0 0 0 0 3 0 0 0 3 16 71 77 71 65 48 32 19 26 42 74 74 90 100 100 100 97 94 87 87 84 84 77 74 74 74 55 35 35 29 29 29 32 45 45
26 3 0 0 0 3 0 0 0 0 0 6 16 19 35 71 71 77 65 65 55 32 32 29 45 65 65 71 97 100 100 100 94 87 84 84 71 42 61 35 52 23 16 16 16 6 16 10 16
6 3 3 10 3 3 0 0 0 3 3 3 26 48 58 74 65 45 39 32 35 42 42 42 42 61 68 74 77 100 97 100 100 81 77 77 39 19 3 13 35 23 13 6 6 6 13 3 3
6 16 13 3 3 3 0 0 6 3 6 3 13 29 45 52 45 52 52 45 48 55 45 35 48 58 65 90 90 97 100 97 90 71 68 74 42 19 6 19 32 35 13 10 10 6 3 0 0
6 6 3 0 0 3 3 3 3 3 3 13 19 23 23 23 26 26 32 32 39 42 45 42 42 58 65 81 94 100 100 100 90 87 65 71 68 45 10 23 6 16 19 10 6 6 0 0 0
3 3 0 0 3 3 3 0 0 0 0 0 6 6 0 3 10 10 13 13 13 19 26 35 39 48 61 77 94 87 100 100 97 90 81 65 68 55 16 13 23 6 6 6 10 3 0 0 0
0 0 0 0 0 0 0 0 0 0 0 0 0 0 0 0 0 0 3 3 3 3 3 13 35 39 48 68 77 84 87 97 97 97 87 61 68 58 48 23 19 6 6 3 3 0 0 0 0
0 0 0 0 0 0 0 0 0 0 0 0 0 0 0 0 0 0 0 0 0 3 3 3 10 23 35 42 61 74 77 81 84 90 81 71 71 55 55 42 16 16 6 0 0 0 0 0 0
0 0 0 0 0 0 0 0 0 0 0 0 0 0 0 0 0 0 0 0 0 0 0 0 3 13 16 29 45 55 61 65 74 77 84 55 58 55 71 68 45 23 6 6 3 3 3 0 0
0 0 0 0 0 0 0 0 0 0 0 0 0 0 0 0 0 0 0 0 0 0 0 0 0 3 6 10 26 45 42 58 65 55 68 65 55 71 71 84 74 29 48 19 3 3 0 0 0
0 0 0 0 0 0 0 0 0 0 0 0 0 0 0 0 0 0 0 0 0 0 0 0 0 0 0 6 10 29 35 45 52 48 55 58 58 71 77 81 65 45 45 42 16 3 10 0 3
0 0 0 0 0 0 0 0 0 0 0 0 0 0 0 0 0 0 0 0 0 0 0 0 0 0 0 3 6 13 26 35 35 35 39 39 45 48 61 74 58 65 52 35 23 19 6 10 0
0 0 0 0 0 0 0 0 0 0 0 0 0 0 0 0 0 0 0 0 0 0 0 0 0 0 0 0 6 6 13 19 35 58 52 42 35 52 42 58 52 52 52 45 29 29 26 16 0
0 0 0 0 0 0 0 0 0 0 0 0 0 0 0 0 0 0 0 0 0 0 0 0 0 0 0 0 6 10 16 16 39 55 52 45 45 48 48 45 48 48 45 39 32 23 23 16 6
0 0 0 0 0 0 0 0 0 0 0 0 0 0 0 0 0 0 0 0 0 0 0 0 0 0 0 3 3 6 13 19 29 42 48 55 42 42 48 48 48 45 52 45 39 6 13 16 16
0 0 0 0 0 0 0 0 0 0 0 0 0 0 0 0 0 0 0 0 0 0 0 0 0 0 0 3 10 10 23 23 23 32 39 39 32 32 39 48 55 48 55 39 23 13 6 13 19
0 0 0 0 0 0 0 0 0 0 0 0 0 0 0 0 0 0 0 0 0 0 0 0 0 0 0 10 10 13 16 16 23 23 39 32 39 35 26 35 42 35 32 23 23 16 13 6 3
0 0 0 0 0 0 0 0 0 0 0 0 0 0 0 0 0 0 0 0 0 0 0 0 0 0 0 6 6 10 6 13 16 23 29 32 29 32 26 19 13 13 16 16 19 13 13 10 6
0 0 0 0 0 0 0 0 0 0 0 0 0 0 0 0 0 0 0 0 0 0 0 0 0 0 0 3 3 6 6 13 16 16 19 23 26 19 19 16 16 10 6 6 13 13 10 10 10
0 0 0 0 0 0 0 0 0 0 0 0 0 0 0 0 0 0 0 0 0 0 0 0 0 3 0 3 6 10 6 10 10 13 13 16 16 16 16 16 13 10 6 3 3 13 3 3 6
0 0 0 0 0 0 0 0 0 0 0 0 0 0 0 0 0 0 0 0 0 0 0 0 0 0 0 3 3 3 6 3 10 10 6 6 3 3 6 6 13 10 10 6 6 3 3 3 3
0 0 0 0 0 0 0 0 0 0 0 0 0 0 0 0 0 0 0 0 0 0 0 0 0 0 0 0 3 3 10 13 6 3 0 0 0 0 0 0 0 0 3 6 3 3 3 3 0
0 0 0 0 0 0 0 0 0 0 0 0 0 0 0 0 0 0 0 0 0 0 0 0 0 0 0 0 3 3 3 3 3 0 0 0 0 0 0 0 0 0 0 0 0 3 0 0 3

GEFSSGP_con_cape1000_060.txt.gz
Probability
100 100 100 100 100 77 0 0 0 0 0 0 0 0 0 13 32 48 74 52 87 87 100 100 100 100 100 100 100 100 100 100 97 97 97 90 90 90 87 90 94 97 100 100 100 97 97 100 100
100 100 100 100 100 0 0 0 0 0 0 0 0 0 3 3 6 3 48 77 84 94 97 100 100 100 100 100 100 100 100 100 97 97 97 94 94 90 87 90 94 90 97 97 97 97 97 100 100
100 100 100 100 16 0 0 0 0 0 0 0 0 0 3 3 13 16 32 55 84 94 97 100 100 100 100 100 100 100 100 100 97 97 97 94 94 90 84 84 90 94 94 94 97 97 97 97 100
100 100 100 68 0 0 0 0 0 0 0 0 0 3 3 3 19 6 13 35 77 97 100 100 100 100 100 100 100 97 94 97 97 97 94 87 84 77 74 77 84 90 87 90 90 90 90 97 94
100 100 61 6 0 3 3 3 6 3 0 0 13 13 10 0 6 6 19 32 65 90 100 100 100 100 100 100 97 97 97 94 90 87 90 87 84 81 77 81 81 84 84 84 84 87 84 81 90
100 81 6 0 0 3 3 3 6 10 13 10 3 10 16 13 13 13 23 32 48 84 94 100 100 100 100 100 97 97 97 94 87 87 84 87 84 84 81 84 84 81 71 77 77 68 74 77 77
100 87 13 3 29 10 0 10 26 29 23 26 13 29 35 26 39 26 19 26 39 71 87 97 100 100 100 100 100 97 97 97 84 84 90 90 87 81 84 81 77 71 61 58 58 55 55 55 52
100 87 10 0 29 13 6 19 29 39 45 35 32 26 39 29 35 48 35 29 32 35 71 87 90 97 100 100 100 100 100 100 94 90 94 94 90 90 87 94 84 68 48 29 39 35 42 45 45
74 65 6 29 52 29 19 16 10 32 26 26 39 42 29 32 35 42 45 29 19 23 32 52 55 84 94 100 100 100 100 100 100 94 97 97 84 71 84 84 87 74 45 29 23 35 26 39 48
71 71 19 52 55 35 19 16 19 29 26 29 19 19 23 26 26 32 35 26 29 32 23 10 35 42 61 87 100 100 100 100 94 87 81 77 65 61 68 84 87 74 61 45 32 32 23 19 0
32 48 45 26 39 26 23 16 13 13 10 13 19 16 23 26 26 23 23 26 23 29 23 13 13 16 19 71 84 97 100 100 100 94 81 81 61 48 26 23 68 52 42 13 19 19 3 0 0
42 52 29 32 29 32 23 6 0 6 3 6 13 10 10 10 10 10 13 10 10 13 10 10 16 13 16 29 61 81 97 94 94 71 68 74 65 45 10 19 32 29 16 6 3 0 0 0 0
35 32 19 16 19 13 3 0 0 0 0 0 0 0 0 0 0 0 3 3 6 3 6 6 13 13 6 13 42 52 77 84 90 84 68 77 65 42 16 13 13 13 10 3 3 0 0 0 0
19 10 6 6 10 3 0 0 0 0 0 0 0 0 0 0 0 0 0 0 0 0 0 3 3 10 10 10 16 26 39 52 65 77 81 48 45 45 29 19 16 10 6 0 0 0 0 0 0
10 3 3 3 3 0 0 0 0 0 0 0 0 0 0 0 0 0 0 0 0 0 0 0 0 0 6 10 13 16 26 32 52 48 39 29 45 35 29 26 16 10 10 3 0 0 0 0 0
0 0 0 0 0 0 0 0 0 0 0 0 0 0 0 0 0 0 0 0 0 0 0 0 0 0 3 6 13 23 26 35 35 35 39 19 13 26 26 32 23 13 16 0 0 0 0 0 0
0 0 0 0 0 0 0 0 0 0 0 0 0 0 0 0 0 0 0 0 0 0 0 0 0 0 0 0 6 13 16 26 29 35 32 23 16 16 32 32 19 10 10 13 3 0 0 0 0
0 0 0 0 0 0 0 0 0 0 0 0 0 0 0 0 0 0 0 0 0 0 0 0 0 0 0 3 6 6 16 23 39 32 42 35 26 26 26 42 35 13 10 6 3 3 3 3 0
0 0 0 0 0 0 0 0 0 0 0 0 0 0 0 0 0 0 0 0 0 0 0 0 0 0 0 3 6 3 6 19 19 39 42 45 39 29 29 26 32 26 13 10 6 3 3 3 0
0 0 0 0 0 0 0 0 0 0 0 0 0 0 0 0 0 0 0 0 0 0 0 0 0 0 0 3 3 3 6 10 16 29 35 39 39 35 26 19 23 26 19 6 6 3 3 3 0
0 0 0 0 0 0 0 0 0 0 0 0 0 0 0 0 0 0 0 0 0 0 0 0 0 0 3 3 6 10 16 16 16 23 35 42 39 39 16 19 19 19 23 16 6 3 3 0 0
0 0 0 0 0 0 0 0 0 0 0 0 0 0 0 0 0 0 0 0 0 0 0 0 0 0 0 3 10 3 10 10 10 13 26 39 39 35 26 16 23 19 16 10 10 10 13 0 0
0 0 0 0 0 0 0 0 0 0 0 0 0 0 0 0 0 0 0 0 0 0 0 0 0 0 0 3 6 6 6 10 13 19 19 32 35 42 35 26 26 23 13 13 19 10 6 3 0
0 0 0 0 0 0 0 0 0 0 0 0 0 0 0 0 0 0 0 0 0 0 0 0 3 0 0 3 3 3 3 6 13 13 16 23 35 35 23 23 13 16 13 16 13 13 10 6 0
0 0 0 0 0 0 0 0 0 0 0 0 0 0 0 0 0 0 0 0 0 0 0 0 0 0 0 0 0 3 3 3 6 13 19 26 29 26 19 16 16 16 16 16 16 10 6 3 0
0 0 0 0 0 0 0 0 0 0 0 0 0 0 0 0 0 0 0 0 0 0 0 0 0 0 0 0 0 0 3 6 10 10 10 16 19 23 19 13 13 16 6 13 13 6 6 3 3
0 0 0 0 0 0 0 0 0 0 0 0 0 0 0 0 0 0 0 0 0 0 0 0 0 0 0 0 0 0 3 3 6 6 6 13 16 19 16 16 13 10 3 6 6 10 3 6 0
0 0 0 0 0 0 0 0 0 0 0 0 0 0 0 0 0 0 0 0 0 0 0 0 0 0 0 0 0 0 0 3 3 10 10 10 3 3 6 6 10 10 6 6 6 3 3 3 3
0 0 0 0 0 0 0 0 0 0 0 0 0 0 0 0 0 0 0 0 0 0 0 0 0 0 0 0 0 0 0 3 3 6 6 3 0 3 0 0 0 3 3 0 3 3 3 3 3
0 0 0 0 0 0 0 0 0 0 0 0 0 0 0 0 0 0 0 0 0 0 0 0 0 0 0 0 0 0 0 0 0 0 0 0 0 3 3 0 0 0 0 0 0 0 0 3 3

GEFSSGP_con_cape1000_066.txt.gz
Probability
97 97 97 97 42 0 0 0 0 0 0 0 0 0 0 0 0 3 0 35 48 94 100 100 100 100 100 100 100 100 100 100 97 97 97 97 97 97 97 100 100 100 97 97 97 97 100 100 100
97 97 94 48 3 0 0 0 0 0 0 0 0 0 0 0 0 32 32 58 68 97 100 100 100 100 100 100 100 100 100 100 97 97 97 97 97 97 97 100 97 97 97 97 97 97 97 100 97
97 94 84 16 0 0 0 0 0 3 3 0 0 0 0 0 6 35 52 68 61 90 100 100 100 100 100 100 100 100 100 100 100 97 94 94 94 97 94 97 97 97 97 97 97 97 97 94 94
87 68 23 0 0 0 0 0 0 3 0 0 0 0 0 0 10 61 68 65 74 94 100 100 100 100 100 100 100 100 100 100 97 97 94 94 90 94 90 90 94 94 97 97 94 94 94 94 97
68 29 0 0 0 0 0 3 3 0 0 0 0 0 0 0 23 71 71 84 94 97 100 100 100 100 100 100 100 100 100 100 97 97 97 94 90 84 87 87 87 84 87 87 87 84 84 81 84
29 3 0 0 0 0 3 6 6 3 0 0 0 0 0 0 26 39 71 77 90 97 97 100 100 100 100 100 100 100 100 97 97 97 97 97 90 87 90 94 87 84 81 84 84 77 77 84 84
26 3 0 0 0 0 0 13 6 6 6 0 0 0 0 3 6 19 35 45 55 65 77 84 94 97 100 100 100 100 97 97 97 97 97 100 97 97 90 90 90 84 74 77 74 74 71 68 74
3 0 0 0 0 0 3 3 6 0 0 3 0 0 0 0 3 3 13 16 29 29 39 48 61 77 97 97 100 100 100 100 100 100 97 97 97 100 94 97 90 87 74 74 68 71 68 74 74
0 0 0 0 0 0 0 0 0 0 0 0 0 3 3 3 0 3 0 6 6 10 10 23 35 45 55 71 90 97 97 97 97 97 100 100 90 87 87 97 94 90 84 77 77 68 65 68 74
0 0 0 0 0 0 0 0 3 0 0 0 0 0 0 0 0 0 0 0 0 3 6 6 10 13 23 48 65 74 81 94 90 84 90 87 71 58 71 81 100 100 94 97 84 94 77 58 6
0 0 3 0 3 0 0 0 0 0 0 0 0 0 0 0 0 0 0 0 0 0 0 0 3 10 10 16 26 42 48 48 52 61 68 68 65 42 52 32 84 100 90 74 74 65 26 6 0
0 3 6 6 0 0 0 0 0 0 0 0 0 0 0 0 0 0 0 0 0 0 0 0 0 0 0 3 13 13 16 23 42 35 45 42 39 29 23 16 23 45 52 29 10 3 3 0 0
0 0 3 0 0 0 0 0 0 0 0 0 0 0 0 0 0 0 0 0 0 0 0 0 0 0 0 0 0 3 3 6 19 19 19 32 29 26 26 10 6 10 10 13 3 3 0 0 0
0 0 0 0 0 0 0 0 0 0 0 0 0 0 0 0 0 0 0 0 0 0 0 0 0 0 0 0 0 0 0 3 10 6 3 16 16 19 13 10 3 3 10 10 3 0 0 0 0
0 0 0 0 0 0 0 0 0 0 0 0 0 0 0 0 0 0 0 0 0 0 0 0 0 0 0 0 0 0 0 0 3 0 3 3 6 3 3 6 3 0 3 3 0 0 0 0 0
0 0 0 0 0 0 0 0 0 0 0 0 0 0 0 0 0 0 0 0 0 0 0 0 0 0 0 0 0 0 0 0 3 0 3 6 3 0 0 0 0 3 0 3 0 0 0 0 0
0 0 0 0 0 0 0 0 0 0 0 0 0 0 0 0 0 0 0 0 0 0 0 0 0 0 0 0 0 0 0 0 0 0 6 3 3 6 3 3 0 3 0 0 3 0 0 0 0
0 0 0 0 0 0 0 0 0 0 0 0 0 0 0 0 0 0 0 0 0 0 0 0 0 0 0 0 0 0 0 0 0 0 3 3 3 6 3 3 0 0 3 0 0 0 0 0 0
0 0 0 0 0 0 0 0 0 0 0 0 0 0 0 0 0 0 0 0 0 0 0 0 0 0 0 0 0 0 0 0 0 0 0 3 0 0 0 3 0 0 0 0 3 0 0 0 0
0 0 0 0 0 0 0 0 0 0 0 0 0 0 0 0 0 0 0 0 0 0 0 0 0 0 0 0 0 0 0 0 0 3 0 0 3 0 3 0 3 0 0 3 3 0 0 0 0
0 0 0 0 0 0 0 0 0 0 0 0 0 0 0 0 0 0 0 0 0 0 0 0 0 0 0 0 0 0 0 0 0 3 3 0 0 0 3 3 6 0 0 0 3 3 0 0 0
0 0 0 0 0 0 0 0 0 0 0 0 0 0 0 0 0 0 0 0 0 0 0 0 0 0 0 0 0 0 0 0 0 0 3 0 0 0 0 0 3 6 3 3 3 6 0 0 0
0 0 0 0 0 0 0 0 0 0 0 0 0 0 0 0 0 0 0 0 0 0 0 0 0 0 0 0 0 0 0 0 0 0 0 0 0 0 0 3 3 3 3 0 3 3 3 0 0
0 0 0 0 0 0 0 0 0 0 0 0 0 0 0 0 0 0 0 0 0 0 0 0 0 0 0 0 0 0 0 0 0 0 0 0 0 0 3 6 10 6 3 0 0 0 0 0 0
0 0 0 0 0 0 0 0 0 0 0 0 0 0 0 0 0 0 0 0 0 0 0 0 0 0 0 0 0 0 0 0 0 0 0 0 0 0 3 13 6 3 3 0 0 0 0 0 0
0 0 0 0 0 0 0 0 0 0 0 0 0 0 0 0 0 0 0 0 0 0 0 0 0 0 0 0 0 0 0 0 0 0 0 0 0 0 0 0 3 0 0 0 0 0 0 0 0
0 0 0 0 0 0 0 0 0 0 0 0 0 0 0 0 0 0 0 0 0 0 0 0 0 0 0 0 0 0 0 0 3 3 3 3 3 0 0 0 0 3 3 0 0 0 0 0 0
0 0 0 0 0 0 0 0 0 0 0 0 0 0 0 0 0 0 0 0 0 0 0 0 0 0 0 0 0 0 0 0 0 0 3 3 3 0 3 3 3 0 0 0 0 0 0 0 0
0 0 0 0 0 0 0 0 0 0 0 0 0 0 0 0 0 0 0 0 0 0 0 0 0 0 0 0 0 0 0 0 0 0 0 0 0 0 0 0 0 0 0 0 0 0 0 0 0
0 0 0 0 0 0 0 0 0 0 0 0 0 0 0 0 0 0 0 0 0 0 0 0 0 0 0 0 0 0 0 0 0 0 0 0 0 0 0 0 0 0 0 0 0 0 0 0 0

GEFSSGP_con_cape1000_072.txt.gz
Probability
90 90 94 65 10 0 0 0 0 0 0 0 0 0 0 0 0 0 0 6 23 61 94 100 100 100 100 100 100 100 100 97 97 94 97 97 97 97 97 100 100 100 100 97 97 97 97 100 100
87 90 68 13 0 0 0 0 0 0 0 0 0 0 0 10 26 13 6 23 58 90 100 100 100 100 100 100 100 100 100 97 97 97 97 97 97 97 97 100 100 97 97 97 97 97 97 100 97
81 77 35 0 0 0 0 0 0 0 0 0 0 0 0 3 26 13 23 45 81 94 100 100 100 100 100 100 100 100 100 97 97 97 97 97 97 100 97 100 97 97 97 97 97 97 97 94 97
65 26 0 0 0 0 0 0 0 0 0 0 0 0 0 3 13 16 29 58 74 90 97 97 100 100 100 100 100 100 100 100 97 97 97 97 94 97 94 94 94 94 97 97 97 90 90 90 94
23 3 0 0 0 0 0 0 0 0 0 0 0 0 0 3 6 26 29 29 52 81 94 94 100 100 100 100 100 100 100 100 100 97 97 97 97 90 90 94 94 94 94 87 84 84 90 90 87
6 0 0 0 0 0 0 0 0 0 0 0 0 0 0 0 3 16 26 19 35 55 55 74 90 97 100 100 100 100 100 100 100 100 97 97 97 87 87 90 90 90 94 90 84 84 87 84 87
0 0 0 0 0 0 0 0 0 0 0 0 0 0 3 3 0 0 10 19 19 26 29 39 52 55 87 90 97 100 100 100 100 100 100 100 97 97 94 94 90 90 87 90 87 81 81 77 81
0 0 0 0 0 0 0 0 0 0 0 0 0 0 0 3 3 0 10 6 6 10 13 10 19 23 29 42 81 94 100 100 100 100 100 100 100 97 94 94 94 90 90 87 81 77 81 74 71
0 0 0 0 0 0 0 0 0 0 0 0 0 0 0 0 3 0 0 0 0 0 0 0 6 6 13 23 32 55 84 90 94 94 97 100 97 84 87 90 97 94 94 90 90 90 81 77 77
0 0 0 0 0 0 0 0 0 0 0 0 0 0 0 0 0 0 0 0 0 0 3 3 0 0 0 0 16 16 23 35 48 61 74 81 74 77 84 84 94 97 94 94 97 97 94 65 26
0 0 0 0 0 0 0 0 0 0 0 0 0 0 0 0 0 0 0 0 0 0 0 0 0 0 0 0 0 3 3 6 13 23 32 42 52 48 71 52 61 77 87 90 90 90 58 26 0
0 0 0 0 0 0 0 0 0 0 0 0 0 0 0 0 0 0 0 0 0 0 0 0 0 0 0 0 0 0 3 3 3 6 6 10 26 26 32 29 26 26 39 48 39 39 23 3 0
0 0 0 0 0 0 0 0 0 0 0 0 0 0 0 0 0 0 0 0 0 0 0 0 0 0 0 0 0 0 0 0 6 6 3 6 10 16 13 10 10 10 13 16 26 16 10 3 0
0 0 0 0 0 0 0 0 0 0 0 0 0 0 0 0 0 0 0 0 0 0 0 0 0 0 0 0 0 0 0 0 0 0 3 6 3 6 6 10 3 6 3 10 10 6 3 6 3
0 0 0 0 0 0 0 0 0 0 0 0 0 0 0 0 0 0 0 0 0 0 0 0 0 0 0 0 0 0 0 0 0 0 0 0 3 6 6 0 3 3 6 3 3 3 3 3 0
0 0 0 0 0 0 0 0 0 0 0 0 0 0 0 0 0 0 0 0 0 0 0 0 0 0 0 0 0 0 0 0 0 0 0 0 0 3 3 0 0 3 3 3 3 3 3 0 0
0 0 0 0 0 0 0 0 0 0 0 0 0 0 0 0 0 0 0 0 0 0 0 0 0 0 0 0 0 0 0 0 0 0 0 0 0 0 0 0 0 3 0 0 3 3 3 0 0
0 0 0 0 0 0 0 0 0 0 0 0 0 0 0 0 0 0 0 0 0 0 0 0 0 0 0 0 0 0 0 0 0 0 0 0 0 0 0 0 0 0 0 0 0 3 0 0 0
0 0 0 0 0 0 0 0 0 0 0 0 0 0 0 0 0 0 0 0 0 0 0 0 0 0 0 0 0 0 0 0 0 0 0 0 0 0 0 0 0 0 0 0 0 0 0 0 0
0 0 0 0 0 0 0 0 0 0 0 0 0 0 0 0 0 0 0 0 0 0 0 0 0 0 0 0 0 0 0 0 0 0 0 0 0 0 0 0 0 0 0 0 0 0 0 0 0
0 0 0 0 0 0 0 0 0 0 0 0 0 0 0 0 0 0 0 0 0 0 0 0 0 0 0 0 0 0 0 0 0 0 0 0 0 0 0 0 0 0 0 0 0 0 0 0 0
0 0 0 0 0 0 0 0 0 0 0 0 0 0 0 0 0 0 0 0 0 0 0 0 0 0 0 0 0 0 0 0 0 0 0 0 0 0 0 0 0 0 0 0 0 0 0 0 0
0 0 0 0 0 0 0 0 0 0 0 0 0 0 0 0 0 0 0 0 0 0 0 0 0 0 0 0 0 0 0 0 0 0 0 0 0 0 0 0 0 0 0 0 0 0 0 0 0
0 0 0 0 0 0 0 0 0 0 0 0 0 0 0 0 0 0 0 0 0 0 0 0 0 0 0 0 0 0 0 0 0 0 0 0 0 0 0 0 0 0 3 3 0 0 0 0 0
0 0 0 0 0 0 0 0 0 0 0 0 0 0 0 0 0 0 0 0 0 0 0 0 0 0 0 0 0 0 0 0 0 0 0 0 0 3 0 0 3 0 3 3 3 0 0 0 0
0 0 0 0 0 0 0 0 0 0 0 0 0 0 0 0 0 0 0 0 0 0 0 0 0 0 0 0 0 0 0 0 0 0 0 0 0 0 3 3 0 6 3 3 3 0 0 0 0
0 0 0 0 0 0 0 0 0 0 0 0 0 0 0 0 0 0 0 0 0 0 0 0 0 0 0 0 0 0 0 0 0 0 0 0 0 0 0 0 0 3 3 3 3 0 0 0 0
0 0 0 0 0 0 0 0 0 0 0 0 0 0 0 0 0 0 0 0 0 0 0 0 0 0 0 0 0 0 0 0 0 0 0 0 0 0 0 0 0 0 0 0 0 0 0 0 0
0 0 0 0 0 0 0 0 0 0 0 0 0 0 0 0 0 0 0 0 0 0 0 0 0 0 0 0 0 0 0 0 0 0 0 0 0 0 0 0 0 0 0 0 0 0 0 0 0
0 0 0 0 0 0 0 0 0 0 0 0 0 0 0 0 0 0 0 0 0 0 0 0 0 0 0 0 0 0 0 0 0 0 0 0 0 0 0 0 0 0 0 0 0 0 0 0 0

GEFSSGP_con_cape1000_078.txt.gz
Probability
87 90 97 94 74 0 0 0 0 0 0 0 0 0 0 0 0 10 61 26 23 35 65 97 100 100 100 100 100 100 97 97 97 97 97 97 97 94 97 100 100 100 100 97 97 97 97 100 100
90 87 97 77 10 0 0 0 0 0 0 0 0 0 0 0 3 23 48 45 29 29 65 71 100 100 100 100 100 100 100 100 94 94 94 97 97 97 97 94 100 100 97 97 97 97 97 97 100
84 84 81 19 0 0 0 0 0 0 0 0 0 0 0 6 16 35 55 42 32 35 58 87 100 97 97 100 100 100 100 100 97 97 97 97 97 97 100 97 100 97 97 97 97 97 94 94 97
77 68 32 0 0 0 0 0 0 0 0 0 0 0 3 13 23 42 48 48 35 42 52 77 97 97 97 100 100 100 100 100 100 100 97 94 97 97 97 94 90 97 94 97 97 94 90 94 94
65 48 3 0 0 0 3 3 0 0 0 0 0 0 10 13 23 48 45 39 29 29 42 68 87 84 94 94 90 94 94 97 97 100 97 94 97 94 94 90 90 94 94 94 90 84 87 90 90
71 13 0 0 0 0 3 6 0 0 0 0 0 0 10 10 16 26 26 35 35 29 23 35 58 74 74 77 81 77 81 81 84 94 97 97 97 94 94 90 87 90 90 87 84 77 77 84 77
74 10 0 0 0 0 0 0 0 0 3 0 0 0 3 10 10 23 23 19 16 13 16 19 19 26 29 42 58 71 68 71 71 87 97 100 100 97 90 90 87 90 90 87 84 81 68 74 71
71 13 0 0 0 0 6 0 0 0 3 0 0 0 10 6 10 6 6 10 6 0 6 6 16 16 16 16 16 26 42 58 65 77 90 94 97 94 94 90 90 90 90 90 84 77 68 68 71
48 0 0 0 0 0 10 3 0 0 0 0 0 0 3 3 3 3 6 6 0 0 0 0 3 3 3 6 3 19 19 26 42 55 68 84 87 87 87 81 87 87 90 94 84 84 74 65 74
58 0 0 3 3 10 13 6 3 0 0 0 0 0 3 3 3 0 0 0 0 0 0 3 3 3 3 0 0 16 16 16 16 26 35 65 71 87 68 48 84 87 90 87 90 87 84 61 61
58 23 32 23 13 13 10 3 0 0 3 3 3 3 3 3 3 3 3 0 0 0 0 0 0 3 6 6 6 10 10 26 3 3 16 32 52 71 71 84 84 81 84 87 87 84 84 65 45
61 52 32 19 13 13 6 3 3 3 3 0 0 0 0 0 0 0 0 0 0 0 0 0 0 0 0 6 6 6 10 6 3 6 6 19 35 45 52 71 68 71 84 87 87 84 65 55 26
55 32 19 16 10 6 6 3 3 3 0 0 0 0 0 0 0 0 0 0 0 0 0 0 0 0 0 6 3 3 3 0 0 3 10 13 29 23 35 52 74 61 71 77 90 65 58 52 23
29 19 13 0 0 0 3 0 0 0 0 0 0 0 0 0 0 0 0 0 0 0 0 0 0 0 0 3 3 6 3 0 3 0 0 6 10 32 35 32 48 55 55 42 77 61 68 58 35
13 10 3 3 3 0 0 0 0 0 0 0 0 0 0 0 0 0 0 0 0 0 0 0 0 0 0 0 3 3 6 3 3 3 3 6 10 13 19 32 29 29 42 32 55 39 48 35 32
16 10 3 3 3 0 0 0 0 0 0 0 0 0 0 0 0 0 0 0 0 0 0 0 0 0 0 0 0 0 3 3 3 3 3 3 6 10 13 23 32 32 45 52 58 55 42 29 32
3 0 0 3 3 0 0 0 0 0 0 0 0 0 0 0 0 0 0 0 0 0 0 0 0 0 0 0 0 0 0 3 3 3 3 6 6 6 16 29 35 32 35 39 32 45 42 19 29
0 0 0 0 0 0 0 0 0 0 0 0 0 0 0 0 0 0 0 0 0 0 0 0 0 0 0 0 0 0 0 3 3 3 3 3 6 3 6 26 26 32 35 42 35 32 52 42 19
0 0 0 0 0 0 0 0 0 0 0 0 0 0 0 0 0 0 0 0 0 0 0 0 0 0 0 0 0 0 0 0 0 0 3 3 3 3 3 13 16 39 35 42 39 45 32 39 13
0 0 0 0 0 0 0 0 0 0 0 0 0 0 0 0 0 0 0 0 0 0 0 0 0 0 0 0 0 0 3 3 0 3 6 3 3 3 3 6 16 29 35 35 29 29 39 29 10
0 0 0 0 0 0 0 0 0 0 0 0 0 0 0 0 0 0 0 0 0 0 0 0 0 0 0 0 3 3 3 3 3 0 0 3 3 3 6 3 10 23 26 32 29 29 32 32 10
0 0 0 0 0 0 0 0 0 0 0 0 0 0 0 0 0 0 0 0 0 0 0 0 0 0 0 0 0 0 0 0 0 0 3 3 3 3 3 3 6 10 13 19 23 16 32 32 26
0 0 0 0 0 0 0 0 0 0 0 0 0 0 0 0 0 0 0 0 0 0 0 0 0 0 0 0 0 0 0 0 0 0 3 3 3 0 0 6 6 6 16 13 23 26 19 26 32
0 0 0 0 0 0 0 0 0 0 0 0 0 0 0 0 0 0 0 0 0 0 0 0 0 0 0 0 0 0 0 0 0 0 0 3 3 0 3 6 10 13 10 10 16 26 29 32 19
0 0 0 0 0 0 0 0 0 0 0 0 0 0 0 0 0 0 0 0 0 0 0 0 0 0 0 0 0 0 0 0 0 0 0 3 3 6 3 3 6 6 10 19 16 19 26 19 19
0 0 0 0 0 0 0 0 0 0 0 0 0 0 0 0 0 0 0 0 0 0 0 0 0 0 0 0 0 0 0 0 0 0 3 3 3 6 6 6 6 6 10 19 26 29 19 16 19
0 0 0 0 0 0 0 0 0 0 0 0 0 0 0 0 0 0 0 0 0 0 0 0 0 0 0 0 0 0 0 0 0 0 3 3 3 3 10 6 10 10 13 19 23 23 16 10 16
0 0 0 0 0 0 0 0 0 0 0 0 0 0 0 0 0 0 0 0 0 0 0 0 0 0 0 0 0 0 0 0 0 0 0 0 0 0 0 6 10 13 16 16 19 26 16 6 6
0 0 0 0 0 0 0 0 0 0 0 0 0 0 0 0 0 0 0 0 0 0 0 0 0 0 0 0 0 0 0 0 0 0 0 0 0 0 0 3 6 10 16 16 23 16 16 10 6
0 0 0 0 0 0 0 0 0 0 0 0 0 0 0 0 0 0 0 0 0 0 0 0 0 0 0 0 0 0 0 0 0 0 0 0 0 0 0 0 0 3 3 13 10 10 10 6 10

GEFSSGP_con_cape1000_084.txt.gz
Probability
97 97 100 100 100 77 0 0 0 0 0 0 0 0 6 16 16 35 45 32 58 94 97 97 97 97 90 94 94 94 94 97 94 94 90 90 94 94 94 97 100 100 100 100 97 97 97 97 97
100 97 97 100 87 0 0 0 0 0 0 0 0 0 16 10 23 26 52 48 45 90 97 97 100 94 90 90 87 90 90 90 90 90 94 90 94 94 94 97 97 97 94 97 97 97 97 97 97
94 94 100 100 29 0 0 0 6 0 0 0 0 3 6 10 13 29 39 39 48 71 84 87 97 90 87 87 81 87 87 90 90 90 90 90 94 90 94 94 94 90 94 97 97 94 94 94 94
100 100 100 77 0 0 0 3 3 0 0 0 0 6 3 13 19 39 42 39 42 68 68 84 81 81 84 81 84 81 87 84 84 81 84 94 90 87 90 94 90 84 90 94 94 90 87 84 87
94 100 84 6 0 3 6 0 0 0 0 0 3 6 6 13 29 29 39 29 35 52 55 55 71 65 65 65 71 74 71 81 81 77 84 84 84 81 84 90 90 90 84 81 90 77 81 87 81
100 94 48 0 0 3 0 0 0 0 0 0 3 10 6 13 29 39 32 29 19 23 26 42 48 45 52 48 48 48 61 55 61 65 77 81 84 84 84 84 90 87 87 87 87 74 68 71 68
100 97 42 0 3 0 0 0 0 0 3 0 0 13 10 16 26 23 26 6 10 10 6 13 19 32 35 39 42 45 45 45 42 55 55 71 74 84 90 90 87 87 90 90 90 84 71 77 77
97 90 19 3 3 3 0 0 0 0 0 0 6 16 19 23 13 13 13 13 3 0 0 0 3 3 10 23 26 19 16 23 39 42 55 65 71 77 87 90 94 94 90 94 90 90 81 74 81
97 87 6 3 10 10 0 0 0 0 0 0 6 6 16 13 19 16 13 6 6 0 3 0 0 0 0 3 3 13 16 23 26 35 48 55 55 48 68 74 87 94 94 94 90 90 87 81 90
90 65 6 6 13 10 0 0 3 0 0 0 3 3 6 6 6 6 3 3 0 0 0 0 0 0 3 3 3 3 3 10 13 19 32 26 19 29 32 35 68 84 90 87 90 97 100 84 65
55 26 10 6 13 10 3 0 3 3 6 10 6 6 6 3 3 3 3 3 3 0 0 0 0 0 0 10 6 6 6 3 6 6 16 10 6 10 13 23 39 45 65 55 87 87 65 58 19
26 26 10 13 13 6 6 3 3 6 3 0 0 3 3 0 0 3 3 3 3 0 0 0 0 0 3 3 3 3 3 3 3 10 13 10 10 6 13 19 23 29 35 42 45 48 42 26 10
19 39 16 13 3 3 3 6 6 3 0 0 0 0 0 0 0 0 0 0 0 0 0 0 0 3 3 3 3 3 3 3 0 3 3 6 6 3 6 10 19 19 16 26 16 13 23 10 6
29 19 16 6 3 3 3 3 3 3 0 0 0 0 0 0 0 0 0 0 0 0 0 0 0 0 0 3 3 3 3 3 3 6 3 3 0 0 6 3 3 10 6 10 13 13 10 0 6
23 16 13 6 6 3 0 0 3 6 0 0 0 0 0 0 0 0 0 0 0 0 0 0 0 0 0 0 0 3 3 6 6 3 0 0 0 0 0 6 6 10 3 6 6 10 10 3 6
19 16 13 13 10 10 3 0 6 3 0 0 0 0 0 0 0 0 0 0 0 0 0 0 0 0 0 0 0 0 0 0 6 6 0 0 3 3 0 3 3 10 6 6 6 10 13 3 3
10 0 0 0 6 6 3 0 3 3 0 0 0 0 0 0 0 0 0 0 0 0 0 0 0 0 0 0 0 0 0 0 0 3 3 3 3 3 0 3 6 3 6 10 3 3 3 0 3
0 0 0 0 3 0 0 0 0 0 0 0 0 0 0 0 0 0 0 0 0 0 0 0 0 0 0 0 0 0 0 0 0 0 0 0 3 3 3 0 0 6 6 6 0 0 3 3 3
0 0 0 0 0 0 0 0 0 0 0 0 0 0 0 0 0 0 0 0 0 0 0 0 0 0 0 0 0 0 0 0 0 0 0 3 3 3 3 0 3 0 3 10 3 3 3 3 0
0 0 0 0 0 0 0 0 0 0 0 0 0 0 0 0 0 0 0 0 0 0 0 0 0 0 0 0 0 0 0 0 0 0 0 0 0 6 3 0 0 0 0 6 3 3 0 0 0
0 0 0 0 0 0 0 0 0 0 0 0 0 0 0 0 0 0 0 0 0 0 0 0 0 0 0 0 0 0 0 0 0 3 0 0 0 0 6 3 0 0 0 0 0 0 3 0 0
0 0 0 0 0 0 0 0 0 0 0 0 0 0 0 0 0 0 0 0 0 0 0 0 0 0 0 0 0 0 0 0 0 0 0 0 0 3 3 3 3 0 0 3 3 3 3 0 0
0 0 0 0 0 0 0 0 0 0 0 0 0 0 0 0 0 0 0 0 0 0 0 0 0 0 0 0 0 0 0 0 0 0 0 0 0 3 3 3 3 0 0 0 3 6 3 0 0
0 0 0 0 0 0 0 0 0 0 0 0 0 0 0 0 0 0 0 0 0 0 0 0 0 0 0 0 0 0 0 0 0 0 0 0 0 0 3 3 3 0 0 0 3 6 6 3 0
0 0 0 0 0 0 0 0 0 0 0 0 0 0 0 0 0 0 0 0 0 0 0 0 0 0 0 0 0 0 0 0 0 0 0 0 0 0 0 0 0 0 0 0 3 3 3 0 0
0 0 0 0 0 0 0 0 0 0 0 0 0 0 0 0 0 0 0 0 0 0 0 0 0 0 0 0 0 0 0 0 0 0 0 0 0 0 3 3 0 0 3 3 0 3 3 3 0
0 0 0 0 0 0 0 0 0 0 0 0 0 0 0 0 0 0 0 0 0 0 0 0 0 0 0 0 0 0 0 0 0 0 0 0 0 0 0 0 0 3 3 3 3 3 6 3 0
0 0 0 0 0 0 0 0 0 0 0 0 0 0 0 0 0 0 0 0 0 0 0 0 0 0 0 0 0 0 0 0 0 0 0 0 0 0 0 0 3 0 6 3 10 10 6 6 3
0 0 0 0 0 0 0 0 0 0 0 0 0 0 0 0 0 0 0 0 0 0 0 0 0 0 0 0 0 0 0 0 0 0 0 0 0 0 0 0 0 3 3 3 6 10 6 6 6
0 0 0 0 0 0 0 0 0 0 0 0 0 0 0 0 0 0 0 0 0 0 0 0 0 0 0 0 0 0 0 0 0 0 0 0 0 0 0 0 0 0 0 6 6 6 6 6 3

GEFSSGP_con_cape1000_090.txt.gz
Probability
100 94 84 68 26 6 0 0 0 0 0 0 3 3 0 0 0 0 0 45 71 77 94 100 97 97 100 97 97 97 100 100 100 97 97 94 94 94 90 97 94 94 94 94 97 97 94 94 90
100 90 81 29 6 0 0 0 0 0 0 0 0 0 0 3 3 3 23 61 61 77 94 94 100 100 97 97 97 94 97 97 94 94 94 94 90 90 94 97 87 87 90 87 87 90 94 90 90
100 94 61 6 0 0 0 0 0 0 0 0 0 0 0 0 6 6 26 52 52 77 90 94 94 97 97 97 94 94 94 94 97 97 94 94 90 94 94 94 90 84 90 94 87 90 90 90 90
90 68 16 3 0 0 0 0 0 3 0 6 0 0 0 3 10 19 35 45 48 55 74 81 87 90 94 97 97 97 94 90 87 94 90 94 90 90 94 94 94 90 87 87 90 87 87 87 81
81 23 6 0 0 0 0 0 0 0 0 3 0 0 0 19 23 19 29 29 32 42 55 68 81 77 81 84 84 90 94 90 90 87 94 97 94 90 94 94 94 90 87 84 84 84 84 81 77
58 10 0 0 0 0 0 0 0 0 0 0 0 0 3 10 13 13 16 23 23 32 35 48 58 65 61 68 74 74 77 77 71 77 84 84 84 87 94 94 97 94 90 90 84 84 84 77 77
48 0 0 0 0 0 0 0 0 0 0 0 0 0 3 3 0 3 3 6 3 10 16 19 23 39 45 55 58 58 52 65 68 68 71 74 81 84 90 94 97 97 94 94 94 90 87 84 81
32 0 0 0 0 0 0 0 0 0 0 6 10 0 0 6 0 0 0 0 0 0 0 0 6 10 13 13 29 39 45 42 55 65 65 68 71 68 71 77 90 94 97 97 94 94 90 90 84
23 0 0 0 0 0 0 0 0 0 0 0 10 13 3 10 6 3 0 0 0 0 0 0 0 0 0 0 6 19 19 19 26 32 29 48 32 32 39 52 68 81 87 87 94 94 94 90 90
13 0 0 0 0 0 0 0 0 0 0 3 6 16 16 10 6 3 3 0 0 0 0 0 0 0 0 0 0 0 0 3 3 6 6 6 6 3 10 26 45 61 77 81 84 84 87 90 71
6 0 0 0 0 0 0 0 0 0 0 3 6 3 10 6 3 0 0 0 0 0 0 0 0 0 0 0 0 0 0 0 0 0 3 3 3 3 3 0 13 26 32 45 61 61 65 68 58
3 10 3 0 3 6 0 0 0 0 0 0 0 3 3 3 0 0 0 0 0 0 0 0 0 0 0 0 0 0 0 0 0 0 0 0 3 0 0 0 0 13 13 19 19 13 26 29 19
6 0 6 6 6 3 0 0 0 0 0 0 0 0 0 0 0 0 0 0 0 0 0 0 0 0 0 0 0 0 0 0 0 0 0 0 0 0 0 0 0 3 3 0 3 3 3 3 3
6 6 3 3 3 0 0 0 0 0 0 0 0 0 0 0 0 0 0 0 0 0 0 0 0 0 0 0 0 0 0 0 0 0 0 0 0 0 0 0 0 0 0 0 0 0 0 0 0
10 10 0 0 3 0 0 0 0 0 0 0 0 0 0 0 0 0 0 0 0 0 0 0 0 0 0 0 0 0 0 0 0 0 0 0 0 0 0 0 0 0 0 0 0 0 0 0 0
0 0 0 0 3 0 0 0 0 0 0 0 0 0 0 0 0 0 0 0 0 0 0 0 0 0 0 0 0 0 0 0 0 0 0 0 0 0 0 0 0 0 0 0 0 0 0 0 0
0 0 0 0 3 0 0 0 0 0 0 0 0 0 0 0 0 0 0 0 0 0 0 0 0 0 0 0 0 0 0 0 0 0 0 0 0 0 0 0 0 0 0 0 0 0 0 0 0
0 0 0 0 0 0 0 0 0 0 0 0 0 0 0 0 0 0 0 0 0 0 0 0 0 0 0 0 0 0 0 0 0 0 0 0 0 0 0 0 0 0 0 0 0 0 0 0 0
0 0 0 0 0 3 0 0 0 0 0 0 0 0 0 0 0 0 0 0 0 0 0 0 0 0 0 0 0 0 0 0 0 0 0 0 0 0 0 0 0 0 0 0 0 0 0 0 0
0 0 0 0 0 0 0 0 0 0 0 0 0 0 0 0 0 0 0 0 0 0 0 0 0 0 0 0 0 0 0 0 0 0 0 0 0 0 0 0 0 0 0 0 0 0 0 0 0
0 0 0 0 0 0 0 0 0 0 0 0 0 0 0 0 0 0 0 0 0 0 0 0 0 0 0 0 0 0 0 0 0 0 0 0 0 0 0 0 0 0 0 0 0 0 0 0 0
0 0 0 0 0 0 0 0 0 0 0 0 0 0 0 0 0 0 0 0 0 0 0 0 0 0 0 0 0 0 0 0 0 0 0 0 0 0 0 0 0 0 0 0 0 0 0 0 0
0 0 0 0 0 0 0 0 0 0 0 0 0 0 0 0 0 0 0 0 0 0 0 0 0 0 0 0 0 0 0 0 0 0 0 0 0 0 0 0 0 0 0 0 0 0 0 0 0
0 0 0 0 0 0 0 0 0 0 0 0 0 0 0 0 0 0 0 0 0 0 0 0 0 0 0 0 0 0 0 0 0 0 0 0 0 0 0 0 0 0 0 0 0 0 0 0 0
0 0 0 0 0 0 0 0 0 0 0 0 0 0 0 0 0 0 0 0 0 0 0 0 0 0 0 0 0 0 0 0 0 0 0 0 0 0 0 0 0 0 0 0 0 0 0 0 0
0 0 0 0 0 0 0 0 0 0 0 0 0 0 0 0 0 0 0 0 0 0 0 0 0 0 0 0 0 0 0 0 0 0 0 0 0 0 0 0 0 0 0 0 0 0 0 0 0
0 0 0 0 0 0 0 0 0 0 0 0 0 0 0 0 0 0 0 0 0 0 0 0 0 0 0 0 0 0 0 0 0 0 0 0 0 0 0 0 0 0 0 0 0 0 0 0 0
0 0 0 0 0 0 0 0 0 0 0 0 0 0 0 0 0 0 0 0 0 0 0 0 0 0 0 0 0 0 0 0 0 0 0 0 0 0 0 0 0 0 0 0 0 0 0 0 0
0 0 0 0 0 0 0 0 0 0 0 0 0 0 0 0 0 0 0 0 0 0 0 0 0 0 0 0 0 0 0 0 0 0 0 0 0 0 0 0 0 0 0 0 0 0 0 0 0
0 0 0 0 0 0 0 0 0 0 0 0 0 0 0 0 0 0 0 0 0 0 0 0 0 0 0 0 0 0 0 0 0 0 0 0 0 0 0 0 0 0 0 0 0 0 0 0 0